This is the latest recevied weather packets stored in our database for station/object N0QWM. If no packets are shown the sender has not sent any weather packets the latest 10 day(s).
| Time | Temp. | Humidity | Pressure | Rain* | Wind** | Luminosity | Snow |
|---|---|---|---|---|---|---|---|
| 1788113383 | 32.78° C | 63% | 1024.9 hPa | 0 mm | - | 132 W/m² | - |
| 1788113082 | 31.67° C | 65% | 1025 hPa | 0 mm | - | 729 W/m² | - |
| 1788112781 | 31.67° C | 65% | 1025.1 hPa | 0 mm | - | 141 W/m² | - |
| 1788112475 | 31.11° C | 66% | 1025.1 hPa | 0 mm | - | 144 W/m² | - |
| 1788112171 | 31.11° C | 66% | 1025.2 hPa | 0 mm | - | 324 W/m² | - |
| 1788111867 | 31.67° C | 66% | 1025.2 hPa | 0 mm | - | 232 W/m² | - |
| 1788111561 | 31.67° C | 65% | 1025.3 hPa | 0 mm | - | 164 W/m² | - |
| 1788111257 | 32.22° C | 64% | 1025.2 hPa | 0 mm | - | 728 W/m² | - |
| 1788110953 | 32.22° C | 64% | 1025.4 hPa | 0 mm | - | 727 W/m² | - |
| 1788110649 | 31.67° C | 67% | 1025.3 hPa | 0 mm | - | 751 W/m² | - |
| 1788110344 | 32.78° C | 65% | 1025.5 hPa | 0 mm | - | 246 W/m² | - |
| 1788110040 | 31.67° C | 66% | 1025.5 hPa | 0 mm | - | 163 W/m² | - |
| 1788109734 | 31.67° C | 68% | 1025.8 hPa | 0 mm | - | 685 W/m² | - |
| 1788109434 | 31.67° C | 66% | 1025.6 hPa | 0 mm | - | 443 W/m² | - |
| 1788109132 | 31.11° C | 70% | 1025.7 hPa | 0 mm | - | 686 W/m² | - |
| 1788108829 | 31.11° C | 69% | 1025.7 hPa | 0 mm | - | 137 W/m² | - |
| 1788108525 | 30.56° C | 70% | 1025.7 hPa | 0 mm | - | 680 W/m² | - |
| 1788108220 | 30.56° C | 70% | 1025.9 hPa | 0 mm | - | 636 W/m² | - |
| 1788107917 | 30° C | 71% | 1026.1 hPa | 0 mm | - | 528 W/m² | - |
| 1788107612 | 30.56° C | 73% | 1025.8 hPa | 0 mm | - | 183 W/m² | - |
| 1788107312 | 30.56° C | 71% | 1026.1 hPa | 0 mm | - | 752 W/m² | - |
| 1788107009 | 31.11° C | 71% | 1026.2 hPa | 0 mm | - | 147 W/m² | - |
| 1788106709 | 30.56° C | 71% | 1026 hPa | 0 mm | - | 150 W/m² | - |
| 1788106407 | 31.11° C | 72% | 1026.2 hPa | 0 mm | - | 168 W/m² | - |
| 1788106103 | 30.56° C | 71% | 1026.4 hPa | 0 mm | - | 740 W/m² | - |
* Rain latest hour (hover to see other rain measurements)
** Current wind speed in m/s (hover to see current wind gust speed)